[[{"header":{"parameterUnit":"m.s-1","parameterCategory":1,"la1":30.2991,"la2":30.254,"lo1":-89.0895,"lo2":-89.0444,"dy":0.0017,"dx":0.0017,"nx":28,"ny":28,"refTime":"2025-06-02T09:00:00:Z","depth":0,"parameterNumber":2,"parameterNumberName":"U-component_of_WINDS"},"data":[0,0,0,0,0,0,0,0,0,0,0,0,0,0,0,0,0,0,0,0,0,0,0,0,0,0,0,0,0,0,0,0,0,0,0,0,0,0,0,0,0,0,0,0,0,0,0,0,0,0,0,0,0,0,0,0,0,0,-2.315,-2.315,0,-2.3168,-2.3168,-2.3168,-2.3118,-2.3116,-2.3114,-2.3113,-2.3133,-2.3135,-2.3137,0,0,0,0,0,0,0,0,0,0,0,0,0,-2.3076,-2.3077,-2.315,-2.315,-2.3151,-2.3168,-2.3168,-2.3168,-2.3118,-2.3116,-2.3114,-2.3112,-2.3132,-2.3135,-2.3137,0,0,0,0,0,0,0,0,0,0,0,0,0,-2.3102,-2.3078,-2.315,-2.3127,-2.3126,-2.3168,-2.3168,-2.3168,-2.3118,-2.3116,-2.3114,-2.3111,-2.3132,-2.3135,-2.3137,-2.3203,0,0,-2.3147,-2.3148,0,0,0,0,0,0,0,0,-2.3101,-2.3105,-2.3131,-2.3129,-2.3127,-2.3138,-2.3149,-2.318,-2.3119,-2.3121,-2.3113,-2.311,-2.3137,-2.3139,-2.3148,-2.3204,-2.3205,-2.3147,-2.3149,-2.315,-2.3151,0,0,0,0,0,0,0,-2.3099,-2.3104,-2.3157,-2.3131,-2.3129,-2.3117,-2.3118,-2.3155,-2.3142,-2.3121,-2.3117,-2.312,-2.3135,-2.3145,-2.3148,-2.3205,-2.3147,-2.3149,-2.3151,-2.3152,-2.3315,-2.3318,0,0,0,0,0,0,-2.31,-2.3103,-2.3157,-2.3158,-2.3108,-2.3121,-2.3122,-2.3137,-2.3141,-2.314,-2.3122,-2.3117,-2.3141,-2.3144,-2.3148,-2.3224,-2.315,-2.3153,-2.3154,-2.3313,-2.3316,-2.3319,0,0,0,0,0,0,-2.3098,-2.3105,-2.3156,-2.3129,-2.3135,-2.3124,-2.3142,-2.3138,-2.3148,-2.3142,-2.314,-2.3134,-2.3139,-2.3144,-2.3189,-2.3224,-2.3154,-2.3157,-2.331,-2.3314,-2.3317,-2.3378,0,0,0,0,0,0,-2.3096,-2.3105,-2.3129,-2.313,-2.3136,-2.3196,-2.3144,-2.3141,-2.3153,-2.3147,-2.3153,-2.3151,-2.3138,-2.3185,-2.3192,-2.3227,-2.3159,-2.3306,-2.3311,-2.3316,-2.3372,-2.3383,-2.3392,0,0,0,0,0,-2.3094,-2.3146,-2.313,-2.3137,-2.3166,-2.3198,-2.3202,-2.3185,-2.3156,-2.318,-2.3177,-2.3151,-2.322,-2.319,-2.3198,-2.3234,-2.3304,-2.331,-2.3316,-2.3368,-2.3381,-2.3392,0,0,0,0,0,0,-2.3149,-2.3145,-2.3128,-2.3182,-2.3191,-2.319,-2.322,-2.3199,-2.3217,-2.3211,-2.3189,-2.3191,-2.324,-2.3242,-2.3209,-2.3298,-2.3257,-2.3265,-2.3294,-2.3307,-2.3316,-2.3314,-2.3162,0,0,0,0,0,-2.3168,-2.3193,-2.3189,-2.3237,-2.3242,-2.323,-2.3244,-2.323,-2.3238,-2.3242,-2.3241,-2.3251,-2.3275,-2.3291,-2.3313,-2.3373,-2.3373,-2.3402,-2.3412,-2.342,-2.3426,-2.3458,-2.347,-2.3337,-2.3337,-2.3337,0,0,-2.3206,-2.3207,-2.3225,-2.3248,-2.3253,-2.3281,-2.3234,-2.3265,-2.3285,-2.3247,-2.3289,-2.3289,-2.3299,-2.3352,-2.3375,-2.3355,-2.3463,-2.3427,-2.3433,-2.3435,-2.3465,-2.3478,-2.3489,-2.3341,-2.334,-2.334,0,0,-2.329,-2.3293,-2.3333,-2.3339,-2.3347,-2.3339,-2.3349,-2.3352,-2.335,-2.3392,-2.3364,-2.3388,-2.343,-2.3438,-2.3447,-2.3535,-2.3512,-2.3543,-2.3593,-2.3625,-2.3635,-2.3644,-2.3675,-2.3686,-2.3549,-2.355,-2.355,0,-2.3336,-2.3376,-2.3357,-2.3389,-2.3401,-2.3367,-2.3407,-2.3414,-2.343,-2.3439,-2.3416,-2.3467,-2.3471,-2.3525,-2.3546,-2.3556,-2.3566,-2.3541,-2.3635,-2.3644,-2.3652,-2.3681,-2.3693,-2.3553,-2.3553,-2.3552,-2.3552,0,-2.3433,-2.3461,-2.3492,-2.3507,-2.3522,-2.3559,-2.3545,-2.3563,-2.3548,-2.3543,-2.3586,-2.3591,-2.3612,-2.3624,-2.361,-2.3677,-2.3664,-2.3639,-2.3597,-2.3669,-2.3696,-2.3707,-2.3558,-2.3557,-2.3556,-2.3555,0,0,-2.3551,-2.3554,-2.3566,-2.3572,-2.3579,-2.3601,-2.3637,-2.3657,-2.3672,-2.3685,-2.3714,-2.375,-2.3727,-2.3738,-2.3725,-2.3752,-2.3821,-2.3723,-2.3723,-2.3741,-2.3894,-2.3912,-2.3925,-2.3806,-2.3808,-2.381,-2.3893,0,-2.3632,-2.3692,-2.3676,-2.3736,-2.3761,-2.373,-2.3761,-2.3769,-2.3766,-2.3788,-2.3784,-2.381,-2.3777,-2.3784,-2.381,-2.3807,-2.3851,-2.3801,-2.3833,-2.3835,-2.3831,-2.3939,-2.3959,-2.4036,-2.3903,-2.3905,-2.3906,0,-2.3735,-2.375,-2.3813,-2.3815,-2.3826,-2.3854,-2.3871,-2.3892,-2.3901,-2.3897,-2.3909,-2.3891,-2.3927,-2.3886,-2.3936,-2.3902,-2.3915,-2.3915,-2.3918,-2.3919,-2.3874,-2.3943,-2.4061,-2.4072,-2.3923,-2.3921,-2.392,0,-2.3814,-2.385,-2.3892,-2.3899,-2.3903,-2.3923,-2.3926,-2.3933,-2.3946,-2.3962,-2.3971,-2.3991,-2.4002,-2.4019,-2.4007,-2.3978,-2.4058,-2.4016,-2.4055,-2.4056,-2.4072,-2.4071,-2.4193,-2.4082,-2.4082,-2.4082,-2.4082,0,-2.3906,-2.3945,-2.3927,-2.3953,-2.3996,-2.3978,-2.4021,-2.4021,-2.4027,-2.4053,-2.4028,-2.4053,-2.4035,-2.4059,-2.405,-2.4092,-2.4098,-2.4095,-2.4092,-2.4097,-2.4097,-2.4104,-2.4098,-2.4085,-2.4084,-2.4084,-2.4083,0,-2.4001,-2.3991,-2.4034,-2.4034,-2.4036,-2.4067,-2.4068,-2.4092,-2.4087,-2.412,-2.4127,-2.4119,-2.4145,-2.4135,-2.4164,-2.4158,-2.4211,-2.4201,-2.4208,-2.4205,-2.4244,-2.424,-2.4374,-2.439,-2.427,-2.4271,-2.4272,0,-2.406,-2.4089,-2.4093,-2.4108,-2.4112,-2.4137,-2.415,-2.4134,-2.4149,-2.4161,-2.4184,-2.4208,-2.4227,-2.4271,-2.4268,-2.429,-2.428,-2.4325,-2.4283,-2.4287,-2.428,-2.4278,-2.4281,-2.4334,-2.4335,-2.4336,-2.4337,0,-2.4166,-2.4159,-2.4179,-2.4197,-2.4213,-2.4227,-2.4239,-2.4253,-2.4237,-2.4256,-2.4282,-2.4296,-2.4325,-2.4349,-2.4369,-2.4373,-2.4353,-2.435,-2.436,-2.4365,-2.4367,-2.4366,-2.423,-2.4347,-2.4346,-2.4345,-2.4345,-2.4344,-2.4244,-2.4268,-2.4274,-2.4297,-2.4304,-2.4316,-2.4338,-2.4336,-2.4357,-2.4379,-2.4368,-2.4399,-2.4408,-2.4432,-2.4438,-2.4463,-2.4445,-2.446,-2.4463,-2.4467,-2.4472,-2.4364,-2.4466,-2.4466,-2.4466,-2.4466,-2.4465,0,-2.4347,-2.435,-2.4371,-2.4388,-2.4406,-2.4385,-2.4397,-2.4414,-2.4441,-2.445,-2.4469,-2.4499,-2.4523,-2.4523,-2.4545,-2.4564,-2.4556,-2.4571,-2.4569,-2.457,-2.4487,-2.4475,-2.4577,-2.4577,-2.4577,-2.4577,-2.4577,-2.4577,-2.4403,-2.4443,-2.4438,-2.4481,-2.4484,-2.4513,-2.4521,-2.4532,-2.4539,-2.4574,-2.4593,-2.4593,-2.4599,-2.4621,-2.4642,-2.4641,-2.465,-2.4669,-2.4665,-2.4587,-2.4576,-2.4565,-2.4554,-2.4671,-2.4671,-2.4746,-2.4747,-2.4747]},{"header":{"parameterUnit":"m.s-1","parameterCategory":1,"la1":30.2991,"la2":30.254,"lo1":-89.0895,"lo2":-89.0444,"dy":0.0017,"dx":0.0017,"nx":28,"ny":28,"refTime":"2025-06-02T09:00:00:Z","depth":0,"parameterNumber":3,"parameterNumberName":"V-component_of_WINDS"},"data":[0,0,0,0,0,0,0,0,0,0,0,0,0,0,0,0,0,0,0,0,0,0,0,0,0,0,0,0,0,0,0,0,0,0,0,0,0,0,0,0,0,0,0,0,0,0,0,0,0,0,0,0,0,0,0,0,0,0,3.2191,3.2191,0,3.2237,3.2237,3.2238,3.222,3.2219,3.2218,3.2217,3.226,3.2262,3.2265,0,0,0,0,0,0,0,0,0,0,0,0,0,3.2083,3.2085,3.2191,3.2191,3.2192,3.2237,3.2237,3.2238,3.222,3.2219,3.2217,3.2216,3.226,3.2262,3.2265,0,0,0,0,0,0,0,0,0,0,0,0,0,3.213,3.2086,3.219,3.2188,3.2189,3.2236,3.2237,3.2238,3.222,3.2219,3.2217,3.2215,3.2259,3.2262,3.2265,3.2317,0,0,3.2275,3.2276,0,0,0,0,0,0,0,0,3.2127,3.2134,3.2188,3.2188,3.2189,3.2221,3.2215,3.2264,3.2221,3.2208,3.2217,3.2215,3.2248,3.2252,3.2264,3.2319,3.2321,3.2275,3.2277,3.2279,3.228,0,0,0,0,0,0,0,3.2124,3.2131,3.2209,3.2189,3.2189,3.2184,3.2189,3.2225,3.2236,3.2209,3.2208,3.2214,3.2248,3.2261,3.2265,3.2322,3.2275,3.2278,3.228,3.2281,3.242,3.2421,0,0,0,0,0,0,3.2121,3.2129,3.2207,3.221,3.2154,3.2187,3.2192,3.2212,3.2236,3.2238,3.2215,3.2213,3.2257,3.2261,3.2267,3.2328,3.2279,3.2282,3.2284,3.2418,3.242,3.2422,0,0,0,0,0,0,3.2119,3.2128,3.2205,3.2169,3.2179,3.2191,3.2213,3.2214,3.2227,3.2241,3.2242,3.2226,3.2255,3.2262,3.2305,3.2329,3.2283,3.2286,3.2416,3.2419,3.2421,3.2451,0,0,0,0,0,0,3.2116,3.2127,3.2148,3.217,3.2181,3.2244,3.2214,3.2216,3.2233,3.223,3.2252,3.2254,3.2255,3.23,3.2308,3.2333,3.2289,3.2414,3.2417,3.242,3.2448,3.2455,3.246,0,0,0,0,0,3.2112,3.2154,3.2149,3.2159,3.2207,3.2245,3.2251,3.2252,3.2235,3.2255,3.2264,3.2253,3.2326,3.2304,3.2313,3.234,3.2412,3.2416,3.242,3.2446,3.2454,3.246,0,0,0,0,0,0,3.2134,3.2157,3.2152,3.2203,3.2222,3.2242,3.2268,3.2261,3.2285,3.2281,3.2281,3.2286,3.2329,3.2339,3.2315,3.239,3.2366,3.2372,3.2382,3.239,3.2396,3.2392,3.2291,0,0,0,0,0,3.2145,3.2176,3.2194,3.2237,3.2247,3.2256,3.2272,3.2272,3.2291,3.2299,3.2311,3.2329,3.2356,3.2374,3.2399,3.245,3.2454,3.2472,3.2478,3.2483,3.2488,3.2514,3.2522,3.2435,3.2435,3.2435,0,0,3.2168,3.2184,3.2203,3.2242,3.2257,3.2286,3.2263,3.2296,3.2317,3.2304,3.2344,3.2354,3.2374,3.2421,3.2442,3.243,3.2513,3.2488,3.2492,3.2494,3.2519,3.2527,3.2535,3.2437,3.2437,3.2437,0,0,3.2224,3.224,3.2278,3.2293,3.2317,3.2322,3.2331,3.2352,3.2358,3.2399,3.2389,3.2415,3.2462,3.2476,3.249,3.2552,3.2542,3.256,3.2591,3.2617,3.2624,3.263,3.2651,3.2658,3.2565,3.2565,3.2565,0,3.2249,3.2295,3.2297,3.2331,3.2348,3.2338,3.2375,3.2389,3.2419,3.243,3.2417,3.2475,3.2488,3.2538,3.2553,3.2565,3.2574,3.2557,3.2623,3.2629,3.2634,3.2654,3.2662,3.2567,3.2567,3.2567,3.2566,0,3.2324,3.2356,3.2383,3.2413,3.2433,3.2468,3.2474,3.2494,3.2491,3.2498,3.2539,3.2555,3.2583,3.2595,3.2593,3.2644,3.2635,3.2623,3.2598,3.2645,3.2663,3.2671,3.257,3.2569,3.2568,3.2568,0,0,3.2395,3.2426,3.2436,3.2449,3.2474,3.2498,3.2532,3.2561,3.2577,3.2598,3.2626,3.2665,3.2654,3.2669,3.2668,3.2691,3.2738,3.2675,3.2676,3.2685,3.2793,3.2802,3.2811,3.2732,3.2733,3.2735,3.2791,0,3.2452,3.2514,3.2516,3.2571,3.26,3.2591,3.2621,3.2638,3.2645,3.267,3.2677,3.2705,3.2688,3.2697,3.2719,3.2727,3.2759,3.2723,3.2756,3.2758,3.2751,3.2821,3.2831,3.2883,3.2799,3.28,3.2801,0,3.2528,3.2552,3.261,3.263,3.2642,3.2669,3.2695,3.2719,3.2739,3.2742,3.2759,3.2755,3.2789,3.2764,3.281,3.2785,3.2799,3.2805,3.2807,3.2809,3.2781,3.2824,3.29,3.2908,3.2813,3.2812,3.2811,0,3.2572,3.2619,3.266,3.2672,3.2697,3.2715,3.2726,3.2745,3.2761,3.2784,3.2794,3.282,3.2834,3.2853,3.2856,3.2838,3.2902,3.2877,3.2904,3.2904,3.2917,3.2916,3.2996,3.2928,3.2928,3.2928,3.2927,0,3.2635,3.2671,3.268,3.2705,3.2744,3.2747,3.2785,3.2794,3.2811,3.2836,3.283,3.2854,3.2857,3.2881,3.2883,3.292,3.2927,3.2929,3.2929,3.2929,3.2929,3.2938,3.2934,3.293,3.2929,3.2929,3.2928,0,3.2691,3.2699,3.2743,3.2763,3.2769,3.2797,3.2813,3.2837,3.2843,3.2876,3.2883,3.2893,3.2922,3.2927,3.296,3.2961,3.3005,3.3002,3.2999,3.2998,3.3024,3.3021,3.3111,3.3123,3.3048,3.3049,3.305,0,3.2731,3.2758,3.2781,3.2798,3.2811,3.2838,3.2856,3.2859,3.2877,3.2901,3.2921,3.2949,3.2971,3.3017,3.3027,3.3052,3.3048,3.3078,3.3052,3.3051,3.3047,3.3045,3.3048,3.3083,3.3084,3.3084,3.3085,0,3.2799,3.2802,3.2827,3.2854,3.2875,3.2896,3.2916,3.293,3.2936,3.2956,3.2986,3.3003,3.3037,3.3065,3.309,3.31,3.3093,3.3093,3.3101,3.31,3.3097,3.3098,3.3011,3.3091,3.309,3.309,3.3089,3.3089,3.2847,3.2871,3.2891,3.2919,3.2935,3.2953,3.2976,3.2986,3.3011,3.3039,3.3039,3.3071,3.309,3.3123,3.3135,3.3159,3.3149,3.316,3.3163,3.3165,3.3167,3.3094,3.3164,3.3163,3.3163,3.3163,3.3163,0,3.2914,3.2927,3.2953,3.2981,3.3004,3.2996,3.3018,3.3037,3.3065,3.3083,3.3106,3.3139,3.3166,3.3177,3.3203,3.322,3.3218,3.3227,3.3225,3.3228,3.3175,3.3165,3.3229,3.3229,3.3229,3.3229,3.3229,3.3229,3.2952,3.2991,3.2996,3.3042,3.3054,3.3086,3.3099,3.3115,3.313,3.3168,3.319,3.3198,3.3213,3.324,3.3264,3.3267,3.3276,3.3287,3.3288,3.3238,3.3231,3.3225,3.3216,3.3289,3.3289,3.3338,3.3339,3.3339]}]]